Location: Unspecified
(0.0000°N, 0.0000°E)
Time: 11:08:18
(UTC+00:00)

Vanguard 2 - Pass Details

Date: 25 November 2019
Orbit: 553 x 2938 km, 32.9° (Epoch: 14 December)

Event Time Altitude Azimuth Distance (km) Brightness Sun altitude
Rises 01:09:21 0° 225° (SW) 5,897 12.1 -61.1°
Reaches altitude 10° 01:13:01 10° 220° (SW) 5,139 11.7 -60.5°
Enters shadow 01:13:52 13° 219° (SW) 4,970 11.6 -60.3°
Exits shadow 01:29:04 57° 142° (SE) 3,276 10.5 -57.6°
Drops below altitude 10° 01:45:51 10° 70° (ENE) 5,486 12.0 -54.3°
Sets 01:49:51 0° 66° (ENE) 6,305 12.4 -53.5°
